Overview Statistics Trail Chart Weather Telemetry Raw packets
 

This is the latest recevied weather packets stored in our database for station/object KB9HUO. If no packets are shown the sender has not sent any weather packets the latest 10 day(s).

<< 108 109 110 111 112 113 >>
Time Temp. Humidity Pressure Rain* Wind** Luminosity Snow
1787838483 20° C 99% 1017 hPa 0 mm - 125 W/m² -
1787838177 20° C 99% 1016.8 hPa 0 mm - 114 W/m² -
1787837871 20° C 99% 1016.9 hPa 0 mm - 109 W/m² -
1787837570 20° C 99% 1016.9 hPa 0 mm - 89 W/m² -
1787837270 20° C 99% 1016.9 hPa 0 mm - 93 W/m² -
1787836965 20° C 99% 1017 hPa 0 mm - 69 W/m² -
1787836665 20° C 99% 1016.9 hPa 0 mm - 58 W/m² -
1787836364 20° C 99% 1017 hPa 0 mm - 65 W/m² -
1787836060 20° C 99% 1016.8 hPa 0 mm - 79 W/m² -
1787835756 20° C 99% 1016.6 hPa 0 mm - 43 W/m² -
1787835450 19.44° C 99% 1016.7 hPa 0 mm - 61 W/m² -
1787835145 19.44° C 99% 1016.4 hPa 0 mm - 54 W/m² -
1787834845 19.44° C 99% 1016.7 hPa 0 mm - 58 W/m² -
1787834540 19.44° C 99% 1016.6 hPa 0 mm - 54 W/m² -
1787834235 19.44° C 99% 1016.4 hPa 0 mm - 60 W/m² -
1787833931 19.44° C 99% 1016.4 hPa 0 mm - 42 W/m² -
1787833626 19.44° C 99% 1016.2 hPa 0 mm - 40 W/m² -
1787833322 19.44° C 99% 1016.1 hPa 0 mm - 42 W/m² -
1787833016 19.44° C 99% 1016.2 hPa 0 mm - 33 W/m² -
1787832712 19.44° C 99% 1016.2 hPa 0 mm - 31 W/m² -
1787832411 19.44° C 99% 1016 hPa 0 mm - 26 W/m² -
1787832111 19.44° C 99% 1015.9 hPa 0 mm - 24 W/m² -
1787831809 19.44° C 99% 1015.9 hPa 0 mm - 20 W/m² -
1787831505 19.44° C 99% 1016 hPa 0 mm - 18 W/m² -
1787831203 19.44° C 99% 1015.8 hPa 0 mm - 14 W/m² -

* Rain latest hour (hover to see other rain measurements)
** Current wind speed in m/s (hover to see current wind gust speed)